| time (UTC) | temp F | wind direction | speed MPH | gust MPH | rain 1hr in | rain 24hr in | rain mn in | humidity % | barometer mb |
| 20260506194921 | 61 | 0.0 | 0.0 | 0.00 | 0.00 | 0.00 | 100 | 1006.7 | |
| 20260506193921 | 61 | 0.0 | 0.0 | 0.00 | 0.00 | 0.00 | 100 | 1006.5 | |
| 20260506192920 | 62 | 0.0 | 0.0 | 0.00 | 0.00 | 0.00 | 100 | 1006.8 | |
| 20260506191920 | 62 | 0.0 | 0.0 | 0.00 | 0.00 | 0.00 | 100 | 1007.2 | |
| 20260506190920 | 64 | 0.0 | 0.0 | 0.00 | 0.00 | 0.00 | 97 | 1006.3 | |
| 20260506185921 | 65 | 0.0 | 0.0 | 0.00 | 0.00 | 0.00 | 86 | 1006.0 | |
| 20260506184919 | 65 | 0.0 | 0.0 | 0.00 | 0.00 | 0.00 | 86 | 1005.5 | |
| 20260506183919 | 67 | 0.0 | 0.0 | 0.00 | 0.00 | 0.00 | 83 | 1005.4 | |
| 20260506182919 | 66 | 0.0 | 0.0 | 0.00 | 0.00 | 0.00 | 83 | 1005.4 | |
| 20260506181919 | 67 | 0.0 | 0.0 | 0.00 | 0.00 | 0.00 | 79 | 1005.4 | |
| 20260506180918 | 67 | 0.0 | 0.0 | 0.00 | 0.00 | 0.00 | 77 | 1005.3 | |
| 20260506175918 | 68 | 0.0 | 0.0 | 0.00 | 0.00 | 0.00 | 75 | 1005.4 | |
| 20260506174918 | 68 | 0.0 | 0.0 | 0.00 | 0.00 | 0.00 | 74 | 1005.4 | |
| 20260506173918 | 68 | 0.0 | 0.0 | 0.00 | 0.00 | 0.00 | 71 | 1005.7 | |
| 20260506172918 | 69 | 0.0 | 0.0 | 0.00 | 0.00 | 0.00 | 70 | 1006.3 | |
| 20260506171917 | 71 | 0.0 | 0.0 | 0.00 | 0.00 | 0.00 | 60 | 1006.0 | |
| 20260506170917 | 80 | 0.0 | 0.0 | 0.00 | 0.00 | 0.00 | 37 | 1005.3 | |
| 20260506165917 | 81 | 0.0 | 0.0 | 0.00 | 0.00 | 0.00 | 34 | 1005.0 | |
| 20260506164916 | 86 | 0.0 | 0.0 | 0.00 | 0.00 | 0.00 | 31 | 1004.9 | |
| 20260506163916 | 93 | 0.0 | 0.0 | 0.00 | 0.00 | 0.00 | 29 | 1005.0 | |
| 20260506162916 | 91 | 0.0 | 0.0 | 0.00 | 0.00 | 0.00 | 29 | 1005.0 | |
| 20260506161916 | 92 | 0.0 | 0.0 | 0.00 | 0.00 | 0.00 | 30 | 1005.0 | |
| 20260506160915 | 92 | 0.0 | 0.0 | 0.00 | 0.00 | 0.00 | 30 | 1005.1 | |
| 20260506155915 | 90 | 0.0 | 0.0 | 0.00 | 0.00 | 0.00 | 31 | 1005.1 | |
| 20260506154915 | 91 | 0.0 | 0.0 | 0.00 | 0.00 | 0.00 | 31 | 1005.1 | |
| 20260506153915 | 90 | 0.0 | 0.0 | 0.00 | 0.00 | 0.00 | 32 | 1005.2 | |
| 20260506152914 | 87 | 0.0 | 0.0 | 0.00 | 0.00 | 0.00 | 32 | 1005.4 | |
| 20260506151914 | 84 | 0.0 | 0.0 | 0.00 | 0.00 | 0.00 | 35 | 1005.4 | |
| 20260506150914 | 84 | 0.0 | 0.0 | 0.00 | 0.00 | 0.00 | 35 | 1005.5 | |
| 20260506145913 | 85 | 0.0 | 0.0 | 0.00 | 0.00 | 0.00 | 33 | 1005.5 | |
| 20260506144913 | 85 | 0.0 | 0.0 | 0.00 | 0.00 | 0.00 | 34 | 1005.7 | |
| 20260506143913 | 83 | 0.0 | 0.0 | 0.00 | 0.00 | 0.00 | 35 | 1005.7 | |
| 20260506142912 | 81 | 0.0 | 0.0 | 0.00 | 0.00 | 0.00 | 37 | 1005.9 | |
| 20260506141912 | 81 | 0.0 | 0.0 | 0.00 | 0.00 | 0.00 | 37 | 1005.9 | |
| 20260506140912 | 80 | 0.0 | 0.0 | 0.00 | 0.00 | 0.00 | 37 | 1005.8 | |
| 20260506135912 | 83 | 0.0 | 0.0 | 0.00 | 0.00 | 0.00 | 36 | 1005.7 | |
| 20260506134911 | 81 | 0.0 | 0.0 | 0.00 | 0.00 | 0.00 | 37 | 1005.9 | |
| 20260506132911 | 79 | 0.0 | 0.0 | 0.00 | 0.00 | 0.00 | 39 | 1005.9 | |
| 20260506131911 | 77 | 0.0 | 0.0 | 0.00 | 0.00 | 0.00 | 41 | 1006.0 | |
| 20260506130911 | 78 | 0.0 | 0.0 | 0.00 | 0.00 | 0.00 | 40 | 1006.0 | |
| 20260506125910 | 77 | 0.0 | 0.0 | 0.00 | 0.00 | 0.00 | 42 | 1006.1 | |
| 20260506124910 | 78 | 0.0 | 0.0 | 0.00 | 0.00 | 0.00 | 41 | 1006.0 | |
| 20260506123910 | 78 | 0.0 | 0.0 | 0.00 | 0.00 | 0.00 | 40 | 1006.0 | |
| 20260506122909 | 77 | 0.0 | 0.0 | 0.00 | 0.00 | 0.00 | 40 | 1005.9 | |
| 20260506121909 | 75 | 0.0 | 0.0 | 0.00 | 0.00 | 0.00 | 43 | 1006.1 | |
| 20260506120909 | 77 | 0.0 | 0.0 | 0.00 | 0.00 | 0.00 | 42 | 1006.0 | |
| 20260506115909 | 77 | 0.0 | 0.0 | 0.00 | 0.00 | 0.00 | 43 | 1006.0 | |
| 20260506114909 | 77 | 0.0 | 0.0 | 0.00 | 0.00 | 0.00 | 41 | 1005.8 | |
| 20260506113908 | 77 | 0.0 | 0.0 | 0.00 | 0.00 | 0.00 | 41 | 1005.9 | |
| 20260506112908 | 77 | 0.0 | 0.0 | 0.00 | 0.00 | 0.00 | 43 | 1005.8 | |
| 20260506111908 | 75 | 0.0 | 0.0 | 0.00 | 0.00 | 0.00 | 45 | 1005.8 | |
| 20260506110907 | 77 | 0.0 | 0.0 | 0.00 | 0.00 | 0.00 | 45 | 1005.7 | |
| 20260506105907 | 74 | 0.0 | 0.0 | 0.00 | 0.00 | 0.00 | 48 | 1005.8 | |
| 20260506104907 | 74 | 0.0 | 0.0 | 0.00 | 0.00 | 0.00 | 50 | 1005.9 | |
| 20260506103907 | 71 | 0.0 | 0.0 | 0.00 | 0.00 | 0.00 | 52 | 1006.1 | |
| 20260506102906 | 72 | 0.0 | 0.0 | 0.00 | 0.00 | 0.00 | 53 | 1006.0 | |
| 20260506101906 | 71 | 0.0 | 0.0 | 0.00 | 0.00 | 0.00 | 55 | 1006.0 | |
| 20260506100906 | 71 | 0.0 | 0.0 | 0.00 | 0.00 | 0.00 | 55 | 1006.1 | |
| 20260506095906 | 71 | 0.0 | 0.0 | 0.00 | 0.00 | 0.00 | 55 | 1006.1 | |
| 20260506094905 | 71 | 0.0 | 0.0 | 0.00 | 0.00 | 0.00 | 56 | 1006.1 | |
| 20260506093905 | 71 | 0.0 | 0.0 | 0.00 | 0.00 | 0.00 | 55 | 1006.1 | |
| 20260506092905 | 69 | 0.0 | 0.0 | 0.00 | 0.00 | 0.00 | 58 | 1006.0 | |
| 20260506091904 | 69 | 0.0 | 0.0 | 0.00 | 0.00 | 0.00 | 58 | 1006.1 | |
| 20260506090904 | 69 | 0.0 | 0.0 | 0.00 | 0.00 | 0.00 | 58 | 1006.1 | |
| 20260506085904 | 70 | 0.0 | 0.0 | 0.00 | 0.00 | 0.00 | 58 | 1006.2 | |
| 20260506084904 | 69 | 0.0 | 0.0 | 0.00 | 0.00 | 0.00 | 62 | 1005.8 | |
| 20260506083903 | 70 | 0.0 | 0.0 | 0.00 | 0.00 | 0.00 | 60 | 1005.7 | |
| 20260506082903 | 68 | 0.0 | 0.0 | 0.00 | 0.00 | 0.00 | 65 | 1005.7 | |
| 20260506081903 | 68 | 0.0 | 0.0 | 0.00 | 0.00 | 0.00 | 65 | 1005.6 | |
| 20260506080903 | 67 | 0.0 | 0.0 | 0.00 | 0.00 | 0.00 | 68 | 1005.8 | |
| 20260506072902 | 66 | 0.0 | 0.0 | 0.00 | 0.00 | 0.00 | 70 | 1005.7 | |
| 20260506071902 | 66 | 0.0 | 0.0 | 0.00 | 0.00 | 0.00 | 69 | 1005.7 | |
| 20260506070901 | 66 | 0.0 | 0.0 | 0.00 | 0.00 | 0.00 | 68 | 1005.4 | |
| 20260506061900 | 63 | 0.0 | 0.0 | 0.00 | 0.00 | 0.00 | 77 | 1005.3 | |
| 20260506060859 | 62 | 0.0 | 0.0 | 0.00 | 0.00 | 0.00 | 76 | 1005.0 | |
| 20260506050857 | 60 | 0.0 | 0.0 | 0.00 | 0.00 | 0.00 | 77 | 1004.8 | |
| 20260506044857 | 59 | 0.0 | 0.0 | 0.00 | 0.00 | 0.00 | 79 | 1004.7 | |
| 20260506043856 | 58 | 0.0 | 0.0 | 0.00 | 0.00 | 0.00 | 81 | 1004.6 | |
| 20260506042856 | 57 | 0.0 | 0.0 | 0.00 | 0.00 | 0.00 | 82 | 1004.7 | |
| 20260506041856 | 57 | 0.0 | 0.0 | 0.00 | 0.00 | 0.00 | 84 | 1004.7 | |
| 20260506040855 | 56 | 0.0 | 0.0 | 0.00 | 0.00 | 0.00 | 87 | 1004.7 | |
| 20260506035855 | 55 | 0.0 | 0.0 | 0.00 | 0.00 | 0.00 | 89 | 1004.7 | |
| 20260506034854 | 55 | 0.0 | 0.0 | 0.00 | 0.00 | 0.00 | 89 | 1004.7 | |
| 20260506033854 | 54 | 0.0 | 0.0 | 0.00 | 0.00 | 0.00 | 89 | 1004.7 | |
| 20260506032854 | 54 | 0.0 | 0.0 | 0.00 | 0.00 | 0.00 | 90 | 1004.9 | |
| 20260506031853 | 54 | 0.0 | 0.0 | 0.00 | 0.00 | 0.00 | 92 | 1004.9 | |
| 20260506030853 | 53 | 0.0 | 0.0 | 0.00 | 0.00 | 0.00 | 93 | 1004.9 | |
| 20260506025853 | 53 | 0.0 | 0.0 | 0.00 | 0.00 | 0.00 | 95 | 1004.9 | |
| 20260506024853 | 52 | 0.0 | 0.0 | 0.00 | 0.00 | 0.00 | 96 | 1005.0 | |
| 20260506023852 | 52 | 0.0 | 0.0 | 0.00 | 0.00 | 0.00 | 97 | 1005.0 | |
| 20260506022852 | 52 | 0.0 | 0.0 | 0.00 | 0.00 | 0.00 | 98 | 1005.0 | |
| 20260506021852 | 52 | 0.0 | 0.0 | 0.00 | 0.00 | 0.00 | 98 | 1005.0 | |
| 20260506020852 | 53 | 0.0 | 0.0 | 0.00 | 0.00 | 0.00 | 98 | 1005.1 | |
| 20260506015851 | 53 | 0.0 | 0.0 | 0.00 | 0.00 | 0.00 | 97 | 1005.0 | |
| 20260506014851 | 53 | 0.0 | 0.0 | 0.00 | 0.00 | 0.00 | 98 | 1005.0 | |
| 20260506013851 | 53 | 0.0 | 0.0 | 0.00 | 0.00 | 0.00 | 98 | 1005.0 | |
| 20260506012850 | 54 | 0.0 | 0.0 | 0.00 | 0.00 | 0.00 | 98 | 1005.0 | |
| 20260506011850 | 54 | 0.0 | 0.0 | 0.00 | 0.00 | 0.00 | 99 | 1004.9 | |
| 20260506010850 | 54 | 0.0 | 0.0 | 0.00 | 0.00 | 0.00 | 97 | 1004.9 | |
| 20260506005850 | 54 | 0.0 | 0.0 | 0.00 | 0.00 | 0.00 | 96 | 1005.0 | |
| 20260506004850 | 54 | 0.0 | 0.0 | 0.00 | 0.00 | 0.00 | 95 | 1005.0 | |
| 20260506003849 | 55 | 0.0 | 0.0 | 0.00 | 0.00 | 0.00 | 95 | 1005.2 | |
| 20260506002849 | 55 | 0.0 | 0.0 | 0.00 | 0.00 | 0.00 | 93 | 1005.2 | |
| 20260506001849 | 55 | 0.0 | 0.0 | 0.00 | 0.00 | 0.00 | 93 | 1005.2 | |
| 20260506000848 | 55 | 0.0 | 0.0 | 0.00 | 0.00 | 0.00 | 91 | 1005.3 | |
| 20260505235848 | 55 | 0.0 | 0.0 | 0.00 | 0.00 | 0.00 | 89 | 1005.4 | |
| 20260505234848 | 55 | 0.0 | 0.0 | 0.00 | 0.00 | 0.00 | 88 | 1005.3 | |
| 20260505233848 | 56 | 0.0 | 0.0 | 0.00 | 0.00 | 0.00 | 86 | 1005.4 | |
| 20260505232847 | 56 | 0.0 | 0.0 | 0.00 | 0.00 | 0.00 | 85 | 1005.5 | |
| 20260505231847 | 57 | 0.0 | 0.0 | 0.00 | 0.00 | 0.00 | 84 | 1005.7 | |
| 20260505230847 | 57 | 0.0 | 0.0 | 0.00 | 0.00 | 0.00 | 82 | 1005.7 | |
| 20260505225847 | 57 | 0.0 | 0.0 | 0.00 | 0.00 | 0.00 | 80 | 1005.8 | |
| 20260505224847 | 58 | 0.0 | 0.0 | 0.00 | 0.00 | 0.00 | 79 | 1005.8 | |
| 20260505223846 | 59 | 0.0 | 0.0 | 0.00 | 0.00 | 0.00 | 78 | 1005.7 | |
| 20260505222846 | 59 | 0.0 | 0.0 | 0.00 | 0.00 | 0.00 | 75 | 1005.9 | |
| 20260505221846 | 60 | 0.0 | 0.0 | 0.00 | 0.00 | 0.00 | 75 | 1006.0 | |
| 20260505220846 | 60 | 0.0 | 0.0 | 0.00 | 0.00 | 0.00 | 75 | 1006.0 | |
| 20260505215845 | 61 | 0.0 | 0.0 | 0.00 | 0.00 | 0.00 | 75 | 1006.2 | |
| 20260505214845 | 61 | 0.0 | 0.0 | 0.00 | 0.00 | 0.00 | 73 | 1006.3 | |
| 20260505213845 | 62 | 0.0 | 0.0 | 0.00 | 0.00 | 0.00 | 73 | 1006.3 | |
| 20260505212844 | 62 | 0.0 | 0.0 | 0.00 | 0.00 | 0.00 | 72 | 1006.3 | |
| 20260505211844 | 63 | 0.0 | 0.0 | 0.00 | 0.00 | 0.00 | 70 | 1006.3 | |
| 20260505210844 | 63 | 0.0 | 0.0 | 0.00 | 0.00 | 0.00 | 71 | 1006.3 | |
| 20260505205843 | 63 | 0.0 | 0.0 | 0.00 | 0.00 | 0.00 | 71 | 1006.3 | |
| 20260505204843 | 64 | 0.0 | 0.0 | 0.00 | 0.00 | 0.00 | 72 | 1006.1 | |
| 20260505203843 | 64 | 0.0 | 0.0 | 0.00 | 0.00 | 0.00 | 71 | 1006.3 | |
| 20260505202842 | 65 | 0.0 | 0.0 | 0.00 | 0.00 | 0.00 | 71 | 1006.3 | |
| 20260505201842 | 66 | 0.0 | 0.0 | 0.00 | 0.00 | 0.00 | 69 | 1006.2 | |
| 20260505200842 | 66 | 0.0 | 0.0 | 0.00 | 0.00 | 0.00 | 70 | 1006.1 | |
| 20260505195842 | 67 | 0.0 | 0.0 | 0.00 | 0.00 | 0.00 | 70 | 1006.1 |